Powrót do katalogu

FENGYUN 1C DEB

AktywnySSO
NORAD 29770·DEBRIS·🇨🇳 China

Wystrzelony May 10, 1999 z Taiyuan Satellite Launch Center

Loading…

Następne Przeloty (najbliższe 24 godziny)

TLE

ŚwieżeSource: Space-Track

Epoka: Sep 12, 2026, 17:12 UTC

1 29770U 99025BL  26255.71670729  .00001743  00000-0  79923-3 0  9997
2 29770  98.8335 336.3708 0062013 204.3552 309.6116 14.21627879  9749

Śledź FENGYUN 1C DEB w czasie rzeczywistym z AllMySat

Download on the App Store